FW3708 Weather Reports


time (UTC)temp
F
wind
direction
speed
knots
gust
knots
rain 1hr
in
rain 24hr
in
rain mn
in
humidity
%
barometer
mb
20210414101353 59 75 0.0 0.0 0.00 0.00 0.00 99 1019.5
20210414100842 59 75 0.0 0.0 0.00 0.00 0.00 99 1019.5
20210414100338 59 75 0.0 0.0 0.00 0.00 0.00 99 1019.4
20210414095938 59 75 0.0 0.0 0.00 0.00 0.00 99 1019.2
20210414095742 59 75 0.0 0.0 0.00 0.00 0.00 99 1019.2
20210414095030 59 75 0.0 0.0 0.00 0.00 0.00 99 1019.4
20210414094333 59 75 0.0 0.0 0.00 0.00 0.00 99 1019.1
20210414093833 58 75 0.0 0.0 0.00 0.00 0.00 99 1019.1
20210414093335 59 75 0.0 0.0 0.00 0.00 0.00 99 1018.9
20210414092912 59 75 0.0 0.0 0.00 0.00 0.00 99 1019.0
20210414092752 59 75 0.0 0.0 0.00 0.00 0.00 99 1018.8
20210414092043 59 75 0.0 0.0 0.00 0.00 0.00 99 1018.7
20210414091332 60 75 0.0 0.0 0.00 0.00 0.00 99 1018.8
20210414090842 60 75 0.0 0.0 0.00 0.00 0.00 99 1018.6
20210414090339 59 75 0.0 0.0 0.00 0.00 0.00 99 1018.7
20210414085847 60 75 0.0 0.0 0.00 0.00 0.00 99 1018.5
20210414085752 60 75 0.0 0.0 0.00 0.00 0.00 99 1018.8
20210414084910 60 75 0.0 0.0 0.00 0.00 0.00 99 1018.7
20210414084344 60 75 0.0 0.0 0.00 0.00 0.00 99 1018.8
20210414083837 60 75 0.0 0.0 0.00 0.00 0.00 99 1018.6
20210414083333 60 75 0.0 0.0 0.00 0.00 0.00 99 1018.5
20210414082846 60 75 0.0 0.0 0.00 0.00 0.00 99 1018.5
20210414082645 60 75 0.0 0.0 0.00 0.00 0.00 99 1018.6
20210414081942 60 75 0.0 0.0 0.00 0.00 0.00 99 1018.6
20210414081334 60 75 0.0 0.0 0.00 0.00 0.00 99 1018.5
20210414080837 60 75 0.0 0.0 0.00 0.00 0.00 99 1018.7
20210414080338 61 75 0.0 0.0 0.00 0.00 0.00 99 1018.6
20210414075834 61 75 0.0 0.0 0.00 0.00 0.00 99 1018.6
20210414075710 61 75 0.0 0.0 0.00 0.00 0.00 99 1018.6
20210414075048 61 75 0.0 0.0 0.00 0.00 0.00 99 1018.9
20210414074312 61 75 0.0 0.0 0.00 0.00 0.00 99 1019.1
20210414073815 61 75 0.0 0.0 0.00 0.00 0.00 99 1019.0
20210414073316 61 75 0.0 0.0 0.00 0.00 0.00 99 1019.2
20210414072858 61 75 0.0 0.0 0.00 0.00 0.00 99 1018.9
20210414072751 62 75 0.0 0.0 0.00 0.00 0.00 99 1019.3
20210414072053 62 75 0.0 0.0 0.00 0.00 0.00 99 1019.1
20210414071309 62 75 0.0 0.0 0.00 0.00 0.00 99 1019.0
20210414070823 62 75 0.0 0.0 0.00 0.00 0.00 99 1019.0
20210414070310 62 75 0.0 0.0 0.00 0.00 0.00 99 1019.0
20210414065948 62 75 0.0 0.0 0.00 0.00 0.00 99 1018.8
20210414065830 62 75 0.0 0.0 0.00 0.00 0.00 99 1018.8
20210414064943 62 75 0.0 0.0 0.00 0.00 0.00 99 1018.9
20210414064310 62 75 0.0 0.0 0.00 0.00 0.00 99 1019.1
20210414063818 62 75 0.0 0.0 0.00 0.00 0.00 99 1018.9
20210414063311 62 75 0.0 0.0 0.00 0.00 0.00 99 1019.1
20210414062920 62 75 0.0 0.0 0.00 0.00 0.00 99 1019.1
20210414062554 63 75 0.0 0.0 0.00 0.00 0.00 99 1019.1
20210414061902 63 75 0.0 0.0 0.00 0.00 0.00 99 1019.0
20210414061310 63 75 0.0 0.0 0.00 0.00 0.00 99 1019.4
20210414060759 63 75 0.0 0.0 0.00 0.00 0.00 99 1019.5
20210414060401 63 75 0.0 0.9 0.00 0.00 0.00 99 1019.7
20210414060042 63 75 0.0 0.9 0.00 0.00 0.00 99 1019.5
20210414055717 63 76 0.0 0.0 0.00 0.00 0.00 99 1019.5
20210414054804 63 76 0.0 0.0 0.00 0.00 0.00 99 1019.4
20210414054237 63 76 0.0 0.0 0.00 0.00 0.00 99 1019.5
20210414053747 64 75 0.0 0.0 0.00 0.00 0.00 99 1019.6
20210414053237 64 76 0.0 0.0 0.00 0.00 0.00 99 1019.7
20210414052906 64 76 0.0 0.0 0.00 0.00 0.00 99 1019.5
20210414052744 64 76 0.0 0.0 0.00 0.00 0.00 99 1019.5
20210414051759 64 76 0.0 0.0 0.00 0.00 0.00 99 1019.4
20210414051235 64 76 0.0 0.0 0.00 0.00 0.00 99 1019.3
20210414050736 64 76 0.0 0.0 0.00 0.00 0.00 99 1019.2
20210414050349 64 76 0.0 0.0 0.00 0.00 0.00 99 1019.3
20210414050138 65 76 0.0 0.0 0.00 0.00 0.00 98 1019.2
20210414045925 65 76 0.0 0.0 0.00 0.00 0.00 98 1019.1
20210414044827 65 76 0.0 0.0 0.00 0.00 0.00 98 1019.3
20210414044243 65 76 0.0 0.0 0.00 0.00 0.00 98 1019.3
20210414043739 65 76 0.0 0.0 0.00 0.00 0.00 98 1019.2
20210414043247 65 76 0.0 0.0 0.00 0.00 0.00 98 1019.2
20210414042932 66 76 0.0 0.0 0.00 0.00 0.00 98 1019.2
20210414042757 66 76 0.0 0.0 0.00 0.00 0.00 98 1019.3
20210414041824 66 76 0.0 0.0 0.00 0.00 0.00 98 1019.2
20210414041242 67 76 0.0 0.9 0.00 0.00 0.00 97 1019.4
20210414040747 67 76 0.0 0.9 0.00 0.00 0.00 98 1019.3
20210414040429 67 54 0.0 0.9 0.00 0.00 0.00 97 1019.1
20210414040128 67 53 0.0 0.9 0.00 0.00 0.00 97 1019.3
20210414035856 67 58 0.0 0.9 0.00 0.00 0.00 97 1019.1
20210414034911 67 58 0.0 0.9 0.00 0.00 0.00 97 1019.2
20210414034233 67 63 0.9 0.9 0.00 0.00 0.00 97 1019.2
20210414033738 67 55 0.0 1.7 0.00 0.00 0.00 97 1019.2
20210414033445 67 55 0.0 1.7 0.00 0.00 0.00 96 1019.1
20210414033222 67 47 0.0 0.9 0.00 0.00 0.00 96 1019.2
20210414033025 68 45 0.0 0.9 0.00 0.00 0.00 96 1019.2
20210414031811 68 44 0.0 0.9 0.00 0.00 0.00 96 1019.4
20210414031210 68 42 0.0 1.7 0.00 0.00 0.00 96 1019.3
20210414030710 68 46 0.0 1.7 0.00 0.00 0.00 95 1019.2
20210414030214 68 35 0.0 1.7 0.00 0.00 0.00 95 1019.3
20210414025957 68 57 0.0 1.7 0.00 0.00 0.00 95 1019.1
20210414025727 68 45 0.0 0.9 0.00 0.00 0.00 95 1019.0
20210414024729 68 44 0.0 0.9 0.00 0.00 0.00 95 1019.2
20210414024215 68 43 0.0 0.9 0.00 0.00 0.00 95 1019.1
20210414023718 68 34 0.0 0.9 0.00 0.00 0.00 94 1019.1
20210414023224 69 35 0.0 1.7 0.00 0.00 0.00 94 1019.1
20210414022945 69 60 0.0 1.7 0.00 0.00 0.00 93 1019.1
20210414022739 69 45 0.0 0.9 0.00 0.00 0.00 93 1019.2
20210414021718 69 45 0.0 1.7 0.00 0.00 0.00 93 1019.1
20210414021207 69 52 0.0 1.7 0.00 0.00 0.00 93 1019.3
20210414020718 69 36 0.0 0.9 0.00 0.00 0.00 92 1019.0
20210414020205 69 36 0.0 0.9 0.00 0.00 0.00 92 1019.0
20210414020028 70 36 0.0 1.7 0.00 0.00 0.00 91 1018.9
20210414015851 70 42 0.0 1.7 0.00 0.00 0.00 91 1019.0
20210414014732 70 74 0.9 1.7 0.00 0.00 0.00 91 1018.9
20210414014157 69 58 0.0 0.9 0.00 0.00 0.00 91 1018.9
20210414013707 69 58 0.0 0.9 0.00 0.00 0.00 91 1019.0
20210414013112 69 59 0.0 0.0 0.00 0.00 0.00 91 1019.0
20210414012544 69 59 0.0 0.0 0.00 0.00 0.00 91 1018.9
20210414011636 69 59 0.0 0.0 0.00 0.00 0.00 90 1018.8
20210414011141 70 59 0.0 0.0 0.00 0.00 0.00 89 1018.7
20210414010636 70 59 0.0 0.0 0.00 0.00 0.00 89 1018.6
20210414005948 70 59 0.0 0.0 0.00 0.00 0.00 87 1018.4
20210414004638 71 59 0.0 0.0 0.00 0.00 0.00 85 1018.1
20210414004134 71 59 0.0 0.9 0.00 0.00 0.00 84 1018.3
20210414003645 72 59 0.0 0.9 0.00 0.00 0.00 83 1018.2
20210414003140 72 59 0.0 0.0 0.00 0.00 0.00 82 1018.1
20210414002641 73 59 0.0 1.7 0.00 0.00 0.00 79 1018.1
20210414001642 74 59 0.0 1.7 0.00 0.00 0.00 78 1017.9
20210414001135 74 46 0.0 1.7 0.00 0.00 0.00 77 1018.0
20210414000635 75 54 0.0 1.7 0.00 0.00 0.00 76 1017.8
20210414000135 75 61 0.0 1.7 0.00 0.00 0.00 75 1017.6
20210413235925 76 41 0.9 2.6 0.00 0.00 0.00 73 1017.6
20210413234641 76 44 1.7 2.6 0.00 0.00 0.00 72 1017.4
20210413234139 77 164 0.0 2.6 0.00 0.00 0.00 71 1017.3
20210413233632 77 26 0.9 2.6 0.00 0.00 0.00 70 1017.2
20210413233115 78 86 0.9 3.5 0.00 0.00 0.00 68 1017.4
20210413232706 78 92 1.7 5.2 0.00 0.00 0.00 67 1017.3
20210413231636 79 34 0.9 5.2 0.00 0.00 0.00 66 1016.9
20210413231155 80 40 1.7 5.2 0.00 0.00 0.00 64 1017.0
20210413230634 80 67 1.7 5.2 0.00 0.00 0.00 62 1017.1
20210413230339 81 124 2.6 5.2 0.00 0.00 0.00 60 1016.9
20210413230101 81 189 0.9 7.8 0.00 0.00 0.00 59 1017.0
20210413225836 81 343 0.9 7.8 0.00 0.00 0.00 57 1016.9
20210413224849 82 29 1.7 3.5 0.00 0.00 0.00 54 1016.6
20210413224151 82 8 3.5 5.2 0.00 0.00 0.00 51 1016.8
20210413223709 83 33 1.7 5.2 0.00 0.00 0.00 49 1016.8
20210413223144 83 181 1.7 5.2 0.00 0.00 0.00 48 1016.8
20210413222953 83 110 1.7 6.1 0.00 0.00 0.00 47 1016.9
20210413222840 83 41 1.7 6.1 0.00 0.00 0.00 45 1016.6
20210413221634 84 55 0.0 5.2 0.00 0.00 0.00 45 1016.6
20210413221140 84 79 2.6 3.5 0.00 0.00 0.00 44 1016.5
20210413220639 84 5 0.9 3.5 0.00 0.00 0.00 43 1016.5
20210413220431 85 22 0.9 6.1 0.00 0.00 0.00 42 1016.8
20210413220127 85 64 2.6 6.1 0.00 0.00 0.00 40 1016.7
20210413215847 85 82 1.7 6.1 0.00 0.00 0.00 39 1016.7
20210413214635 86 357 1.7 6.1 0.00 0.00 0.00 38 1016.4
20210413214133 87 51 1.7 2.6 0.00 0.00 0.00 37 1016.6
20210413213636 87 76 1.7 1.7 0.00 0.00 0.00 36 1016.4
20210413213133 87 249 0.0 2.6 0.00 0.00 0.00 38 1016.2
20210413212932 87 338 0.9 3.5 0.00 0.00 0.00 37 1016.3
20210413212729 87 112 0.9 5.2 0.00 0.00 0.00 35 1016.2
20210413211645 86 52 0.9 6.1 0.00 0.00 0.00 34 1016.2
20210413211137 87 353 1.7 6.1 0.00 0.00 0.00 35 1016.3
20210413210639 87 282 0.0 3.5 0.00 0.00 0.00 38 1016.1
20210413210133 87 336 0.0 5.2 0.00 0.00 0.00 36 1016.2
20210413205853 87 6 0.9 5.2 0.00 0.00 0.00 34 1016.1
20210413205444 89 73 1.7 2.6 0.00 0.00 0.00 34 1016.2
20210413204631 88 299 0.0 3.5 0.00 0.00 0.00 37 1016.2
20210413204106 87 45 0.0 6.1 0.00 0.00 0.00 35 1016.0
20210413203846 87 45 0.9 6.1 0.00 0.00 0.00 33 1016.0
20210413203150 88 60 1.7 5.2 0.00 0.00 0.00 32 1016.1
20210413203022 88 40 1.7 5.2 0.00 0.00 0.00 32 1015.9
20210413202429 89 327 0.9 6.1 0.00 0.00 0.00 33 1016.1
20210413201624 88 46 0.9 6.1 0.00 0.00 0.00 32 1015.7
20210413201103 88 68 1.7 6.1 0.00 0.00 0.00 33 1015.9
20210413200624 89 306 0.9 6.1 0.00 0.00 0.00 34 1015.8
20210413200337 89 266 0.9 6.1 0.00 0.00 0.00 35 1016.0
20210413200110 89 264 0.0 3.5 0.00 0.00 0.00 32 1016.0
20210413195423 88 53 1.7 5.2 0.00 0.00 0.00 29 1015.9
20210413194627 88 7 0.9 7.0 0.00 0.00 0.00 32 1016.2
20210413194112 89 56 1.7 7.0 0.00 0.00 0.00 32 1016.1
20210413193649 89 65 1.7 5.2 0.00 0.00 0.00 32 1016.1
20210413193159 89 37 3.5 5.2 0.00 0.00 0.00 32 1016.2
20210413193022 89 4 1.7 6.1 0.00 0.00 0.00 32 1015.9
20210413192736 89 43 1.7 6.1 0.00 0.00 0.00 29 1016.3
20210413191619 90 88 1.7 5.2 0.00 0.00 0.00 33 1016.4
20210413191108 89 21 0.9 5.2 0.00 0.00 0.00 30 1016.4
20210413190628 89 36 1.7 7.0 0.00 0.00 0.00 30 1016.3
20210413190130 89 90 1.7 7.0 0.00 0.00 0.00 30 1016.4
20210413185925 89 81 2.6 5.2 0.00 0.00 0.00 32 1016.4
20210413185512 88 307 0.9 7.8 0.00 0.00 0.00 31 1016.8
20210413184543 89 143 1.7 7.8 0.00 0.00 0.00 33 1016.8
20210413184101 89 138 1.7 5.2 0.00 0.00 0.00 29 1016.5
20210413183536 88 21 0.9 5.2 0.00 0.00 0.00 32 1016.7
20210413183039 88 323 0.0 5.2 0.00 0.00 0.00 34 1016.7
20210413182857 88 22 1.7 5.2 0.00 0.00 0.00 31 1016.8
20210413182300 88 132 1.7 5.2 0.00 0.00 0.00 31 1016.7
20210413181538 89 49 2.6 5.2 0.00 0.00 0.00 33 1016.8
20210413181038 88 116 0.9 5.2 0.00 0.00 0.00 35 1016.9
20210413180533 89 47 0.0 5.2 0.00 0.00 0.00 36 1016.8
20210413180042 88 324 1.7 5.2 0.00 0.00 0.00 32 1017.0
20210413175824 88 86 3.5 5.2 0.00 0.00 0.00 30 1016.9
20210413175259 88 62 1.7 5.2 0.00 0.00 0.00 35 1016.9
20210413174533 88 17 0.9 3.5 0.00 0.00 0.00 35 1017.2
20210413174036 88 15 0.0 3.5 0.00 0.00 0.00 37 1016.9
20210413173536 88 254 0.0 3.5 0.00 0.00 0.00 39 1017.1
20210413173052 88 91 1.7 2.6 0.00 0.00 0.00 34 1017.1
20210413172922 88 37 0.9 6.1 0.00 0.00 0.00 36 1017.1
20210413172525 88 311 1.7 6.1 0.00 0.00 0.00 39 1017.2
20210413171549 87 75 0.0 3.5 0.00 0.00 0.00 41 1017.0
20210413171043 87 271 0.0 3.5 0.00 0.00 0.00 42 1017.4
20210413170535 87 18 1.7 3.5 0.00 0.00 0.00 39 1017.5
20210413170136 86 278 0.9 6.1 0.00 0.00 0.00 46 1017.6
20210413165916 87 63 1.7 6.1 0.00 0.00 0.00 40 1017.8
20210413165427 87 66 0.9 2.6 0.00 0.00 0.00 44 1017.6
20210413164541 87 294 0.9 3.5 0.00 0.00 0.00 46 1017.8
20210413164046 86 351 1.7 3.5 0.00 0.00 0.00 45 1017.7
20210413163531 86 35 1.7 6.1 0.00 0.00 0.00 41 1017.8
20210413163223 86 11 0.9 6.1 0.00 0.00 0.00 43 1017.9
20210413163019 86 128 1.7 2.6 0.00 0.00 0.00 42 1018.0
20210413162704 86 359 0.0 3.5 0.00 0.00 0.00 49 1018.0
20210413161513 86 86 0.0 3.5 0.00 0.00 0.00 41 1018.2
20210413161022 86 66 2.6 3.5 0.00 0.00 0.00 41 1018.2
20210413160530 86 59 1.7 3.5 0.00 0.00 0.00 41 1018.3
20210413160236 86 295 0.9 3.5 0.00 0.00 0.00 46 1018.2
20210413155953 85 60 1.7 3.5 0.00 0.00 0.00 44 1018.4
20210413155532 85 317 0.9 2.6 0.00 0.00 0.00 49 1018.4
20210413154521 85 69 0.9 3.5 0.00 0.00 0.00 46 1018.4
20210413154018 84 105 0.0 6.1 0.00 0.00 0.00 48 1018.4
20210413153511 83 42 0.9 6.1 0.00 0.00 0.00 48 1018.3
20210413153117 84 63 0.0 3.5 0.00 0.00 0.00 47 1018.0
20210413152925 84 312 0.9 3.5 0.00 0.00 0.00 48 1018.3
20210413152448 84 66 1.7 2.6 0.00 0.00 0.00 46 1018.3
20210413151525 83 51 0.9 2.6 0.00 0.00 0.00 52 1018.0
20210413151022 83 109 0.0 5.2 0.00 0.00 0.00 54 1018.1
20210413150244 82 15 0.9 2.6 0.00 0.00 0.00 53 1018.1
20210413145720 82 350 0.9 5.2 0.00 0.00 0.00 51 1017.8
20210413144537 82 290 2.6 5.2 0.00 0.00 0.00 51 1018.1
20210413144012 81 343 0.0 2.6 0.00 0.00 0.00 55 1018.0
20210413143452 81 299 1.7 7.0 0.00 0.00 0.00 52 1017.9
20210413143136 79 308 0.9 7.0 0.00 0.00 0.00 56 1018.1
20210413143026 78 329 3.5 6.1 0.00 0.00 0.00 54 1017.9
20210413142028 78 246 3.5 5.2 0.00 0.00 0.00 54 1017.8
20210413141436 78 311 0.9 5.2 0.00 0.00 0.00 56 1017.9
20210413140940 78 266 0.9 2.6 0.00 0.00 0.00 59 1018.0
20210413140435 77 328 1.7 2.6 0.00 0.00 0.00 58 1017.7
20210413140122 76 357 1.7 2.6 0.00 0.00 0.00 59 1017.9
20210413140024 76 7 0.9 3.5 0.00 0.00 0.00 64 1017.7
20210413135350 74 335 0.0 3.5 0.00 0.00 0.00 69 1018.0
20210413134433 74 298 0.9 3.5 0.00 0.00 0.00 67 1017.8
20210413133935 74 299 0.9 3.5 0.00 0.00 0.00 70 1018.0
20210413133435 73 331 0.9 2.6 0.00 0.00 0.00 72 1017.8
20210413133135 72 318 0.9 2.6 0.00 0.00 0.00 76 1017.5
20210413132922 71 334 1.7 3.5 0.00 0.00 0.00 77 1017.5
20210413132126 70 327 0.0 3.5 0.00 0.00 0.00 77 1017.6
20210413131442 70 357 1.7 1.7 0.00 0.00 0.00 79 1017.3
20210413130936 69 350 0.9 2.6 0.00 0.00 0.00 81 1017.4
20210413130435 68 343 0.0 2.6 0.00 0.00 0.00 84 1017.2
20210413130039 64 341 1.7 2.6 0.00 0.00 0.00 98 1017.0
20210413125842 63 315 0.9 2.6 0.00 0.00 0.00 99 1017.1
20210413124434 62 349 0.9 1.7 0.00 0.00 0.00 99 1017.2
20210413123933 62 355 0.0 0.9 0.00 0.00 0.00 99 1017.4
20210413123433 62 351 0.0 0.9 0.00 0.00 0.00 99 1017.1
20210413123150 62 326 0.0 0.0 0.00 0.00 0.00 99 1016.9
20210413122651 61 326 0.0 0.0 0.00 0.00 0.00 99 1017.2
20210413121444 60 326 0.0 0.0 0.00 0.00 0.00 99 1017.2
20210413120932 58 325 0.0 0.0 0.00 0.00 0.00 99 1017.0
20210413120418 56 325 0.0 0.0 0.00 0.00 0.00 99 1017.0
20210413115841 55 325 0.0 0.0 0.00 0.00 0.00 99 1017.0
20210413114414 54 325 0.0 0.0 0.00 0.00 0.00 99 1016.8
20210413113912 54 324 0.0 0.0 0.00 0.00 0.00 99 1016.8
20210413113410 53 324 0.0 0.0 0.00 0.00 0.00 99 1016.7
20210413112424 53 324 0.0 0.0 0.00 0.00 0.00 99 1016.7
20210413111427 53 325 0.0 0.0 0.00 0.00 0.00 99 1016.2
20210413110905 53 325 0.0 0.0 0.00 0.00 0.00 99 1016.1
20210413110420 53 325 0.0 0.0 0.00 0.00 0.00 99 1016.2
20210413110114 53 325 0.0 0.0 0.00 0.00 0.00 99 1016.1
20210413105518 53 325 0.0 0.0 0.00 0.00 0.00 99 1016.0
20210413104417 52 325 0.0 0.0 0.00 0.00 0.00 99 1016.0
20210413103913 52 324 0.0 0.0 0.00 0.00 0.00 99 1016.2
20210413103615 52 324 0.0 0.0 0.00 0.00 0.00 99 1016.2
20210413103251 53 324 0.0 0.0 0.00 0.00 0.00 99 1016.0
20210413102955 53 324 0.0 0.0 0.00 0.00 0.00 99 1015.8
20210413102225 53 325 0.0 0.0 0.00 0.00 0.00 99 1015.7